TimeMST,TemperatureF,Dew PointF,Humidity,Sea Level PressureIn,VisibilityMPH,Wind Direction,Wind SpeedMPH,Gust SpeedMPH,PrecipitationIn,Events,Conditions,WindDirDegrees,DateUTC
12:15 AM,28.4,19.4,69,30.07,10.0,SSW,10.4,-,N/A,,Mostly Cloudy,200,2014-02-05 07:15:00
12:35 AM,28.4,19.4,69,30.07,10.0,South,9.2,-,N/A,,Partly Cloudy,190,2014-02-05 07:35:00
12:55 AM,28.4,19.4,69,30.07,10.0,South,10.4,-,N/A,,Clear,190,2014-02-05 07:55:00
1:15 AM,28.4,19.4,69,30.07,10.0,South,11.5,-,N/A,,Scattered Clouds,170,2014-02-05 08:15:00
1:35 AM,28.4,19.4,69,30.07,10.0,South,8.1,-,N/A,,Overcast,190,2014-02-05 08:35:00
1:55 AM,28.4,19.4,69,30.08,10.0,South,8.1,-,N/A,,Overcast,170,2014-02-05 08:55:00
2:15 AM,28.4,19.4,69,30.08,10.0,South,6.9,-,N/A,,Overcast,170,2014-02-05 09:15:00
2:35 AM,28.4,19.4,69,30.08,10.0,South,5.8,-,N/A,,Overcast,180,2014-02-05 09:35:00
2:55 AM,28.4,19.4,69,30.07,10.0,South,6.9,-,N/A,,Overcast,190,2014-02-05 09:55:00
3:15 AM,28.4,19.4,69,30.06,10.0,South,6.9,-,N/A,,Mostly Cloudy,180,2014-02-05 10:15:00
3:35 AM,28.4,19.4,69,30.07,10.0,South,5.8,-,N/A,,Partly Cloudy,190,2014-02-05 10:35:00
3:55 AM,28.4,19.4,69,30.06,10.0,South,4.6,-,N/A,,Partly Cloudy,180,2014-02-05 10:55:00
4:15 AM,28.4,19.4,69,30.06,10.0,South,3.5,-,N/A,,Mostly Cloudy,180,2014-02-05 11:15:00
4:35 AM,28.4,19.4,69,30.06,10.0,SSE,4.6,-,N/A,,Overcast,160,2014-02-05 11:35:00
4:55 AM,26.6,19.4,74,30.06,10.0,Calm,Calm,-,N/A,,Overcast,0,2014-02-05 11:55:00
5:15 AM,28.4,17.6,64,30.06,10.0,Calm,Calm,-,N/A,,Overcast,0,2014-02-05 12:15:00
5:35 AM,28.4,17.6,64,30.05,10.0,Calm,Calm,-,N/A,,Mostly Cloudy,0,2014-02-05 12:35:00
5:55 AM,26.6,17.6,69,30.05,10.0,SSE,4.6,-,N/A,,Overcast,160,2014-02-05 12:55:00
6:15 AM,26.6,17.6,69,30.05,10.0,NW,5.8,-,N/A,,Overcast,310,2014-02-05 13:15:00
6:35 AM,26.6,17.6,69,30.05,10.0,Calm,Calm,-,N/A,,Overcast,0,2014-02-05 13:35:00
6:55 AM,26.6,17.6,69,30.05,10.0,Calm,Calm,-,N/A,,Overcast,0,2014-02-05 13:55:00
7:15 AM,26.6,17.6,69,30.05,10.0,NNE,4.6,-,N/A,,Overcast,20,2014-02-05 14:15:00
7:35 AM,26.6,17.6,69,30.05,10.0,ENE,3.5,-,N/A,,Overcast,70,2014-02-05 14:35:00
7:55 AM,28.4,19.4,69,30.06,10.0,NW,3.5,-,N/A,,Overcast,320,2014-02-05 14:55:00
8:15 AM,28.4,19.4,69,30.07,10.0,Calm,Calm,-,N/A,,Mostly Cloudy,0,2014-02-05 15:15:00
8:35 AM,28.4,19.4,69,30.07,10.0,Calm,Calm,-,N/A,,Mostly Cloudy,0,2014-02-05 15:35:00
8:55 AM,30.2,19.4,64,30.06,10.0,Calm,Calm,-,N/A,,Overcast,0,2014-02-05 15:55:00
9:15 AM,32.0,17.6,55,30.06,10.0,Calm,Calm,-,N/A,,Overcast,0,2014-02-05 16:15:00
9:35 AM,32.0,17.6,55,30.07,10.0,ENE,4.6,-,N/A,,Overcast,70,2014-02-05 16:35:00
9:55 AM,32.0,17.6,55,30.07,10.0,ESE,4.6,-,N/A,,Mostly Cloudy,110,2014-02-05 16:55:00
10:15 AM,32.0,17.6,55,30.07,10.0,Calm,Calm,-,N/A,,Mostly Cloudy,0,2014-02-05 17:15:00
10:35 AM,32.0,17.6,55,30.07,10.0,Calm,Calm,-,N/A,,Scattered Clouds,0,2014-02-05 17:35:00
10:55 AM,33.8,17.6,52,30.06,10.0,SSE,4.6,-,N/A,,Partly Cloudy,160,2014-02-05 17:55:00
11:15 AM,35.6,19.4,52,30.06,10.0,WSW,4.6,-,N/A,,Partly Cloudy,240,2014-02-05 18:15:00
11:35 AM,35.6,19.4,52,30.06,10.0,SSW,8.1,-,N/A,,Scattered Clouds,210,2014-02-05 18:35:00
11:55 AM,35.6,19.4,52,30.05,10.0,SW,6.9,-,N/A,,Mostly Cloudy,220,2014-02-05 18:55:00
12:15 PM,33.8,19.4,56,30.05,10.0,SW,8.1,-,N/A,,Mostly Cloudy,220,2014-02-05 19:15:00
12:35 PM,32.0,23.0,69,30.05,3.0,SW,3.5,-,N/A,Snow,Light Snow,220,2014-02-05 19:35:00
12:55 PM,32.0,24.8,75,30.04,2.5,SW,5.8,-,N/A,Snow,Light Snow,220,2014-02-05 19:55:00
1:15 PM,32.0,26.6,80,30.03,2.5,West,5.8,-,N/A,Snow,Light Snow,260,2014-02-05 20:15:00
1:35 PM,32.0,26.6,80,30.03,1.0,SW,4.6,-,N/A,Snow,Light Snow,230,2014-02-05 20:35:00
1:55 PM,30.2,28.4,93,30.02,1.0,WSW,5.8,-,N/A,Snow,Light Snow,240,2014-02-05 20:55:00
2:15 PM,32.0,28.4,87,30.02,3.0,SW,5.8,-,N/A,Snow,Light Snow,220,2014-02-05 21:15:00
2:35 PM,32.0,28.4,87,30.02,7.0,South,5.8,-,N/A,Snow,Light Snow,180,2014-02-05 21:35:00
2:55 PM,32.0,28.4,87,30.01,5.0,South,4.6,-,N/A,Snow,Light Snow,190,2014-02-05 21:55:00
3:15 PM,32.0,28.4,87,30.00,5.0,SSW,3.5,-,N/A,Snow,Light Snow,200,2014-02-05 22:15:00
3:35 PM,32.0,26.6,80,29.99,10.0,South,4.6,-,N/A,Snow,Light Snow,180,2014-02-05 22:35:00
3:55 PM,32.0,26.6,80,29.99,10.0,SSW,5.8,-,N/A,,Overcast,210,2014-02-05 22:55:00
4:15 PM,32.0,26.6,80,29.99,10.0,South,10.4,-,N/A,,Overcast,180,2014-02-05 23:15:00
4:35 PM,32.0,26.6,80,29.99,10.0,SSW,10.4,-,N/A,,Overcast,200,2014-02-05 23:35:00
4:55 PM,32.0,26.6,80,30.00,10.0,South,6.9,-,N/A,,Mostly Cloudy,190,2014-02-05 23:55:00
5:15 PM,32.0,26.6,80,30.01,10.0,South,8.1,-,N/A,,Mostly Cloudy,170,2014-02-06 00:15:00
5:35 PM,32.0,26.6,80,30.01,2.5,South,6.9,-,N/A,Snow,Light Snow,170,2014-02-06 00:35:00
5:55 PM,30.2,28.4,93,30.02,6.0,SSW,4.6,-,N/A,Snow,Light Snow,210,2014-02-06 00:55:00
6:15 PM,30.2,26.6,86,30.02,10.0,South,4.6,-,N/A,,Overcast,190,2014-02-06 01:15:00
6:35 PM,28.4,26.6,93,30.02,10.0,South,3.5,-,N/A,,Mostly Cloudy,180,2014-02-06 01:35:00
6:55 PM,28.4,26.6,93,30.03,10.0,Calm,Calm,-,N/A,,Partly Cloudy,0,2014-02-06 01:55:00
7:15 PM,28.4,26.6,93,30.04,10.0,Calm,Calm,-,N/A,,Clear,0,2014-02-06 02:15:00
7:35 PM,26.6,24.8,93,30.03,10.0,South,4.6,-,N/A,,Clear,170,2014-02-06 02:35:00
7:55 PM,26.6,24.8,93,30.04,10.0,SSW,4.6,-,N/A,,Clear,200,2014-02-06 02:55:00
8:15 PM,26.6,24.8,93,30.04,10.0,South,5.8,-,N/A,,Clear,170,2014-02-06 03:15:00
8:35 PM,26.6,24.8,93,30.04,10.0,South,5.8,-,N/A,,Scattered Clouds,180,2014-02-06 03:35:00
8:55 PM,26.6,24.8,93,30.04,10.0,South,5.8,-,N/A,,Mostly Cloudy,170,2014-02-06 03:55:00
9:15 PM,24.8,23.0,93,30.04,10.0,South,6.9,-,N/A,,Partly Cloudy,170,2014-02-06 04:15:00
9:35 PM,24.8,23.0,93,30.05,10.0,SW,4.6,-,N/A,,Clear,220,2014-02-06 04:35:00
9:55 PM,24.8,23.0,93,30.05,10.0,South,5.8,-,N/A,,Clear,190,2014-02-06 04:55:00
10:15 PM,23.0,21.2,93,30.04,10.0,South,8.1,-,N/A,,Clear,170,2014-02-06 05:15:00
10:35 PM,23.0,21.2,93,30.04,10.0,South,4.6,-,N/A,,Clear,190,2014-02-06 05:35:00
10:55 PM,23.0,19.4,86,30.04,10.0,South,4.6,-,N/A,,Clear,180,2014-02-06 05:55:00
11:15 PM,23.0,19.4,86,30.05,10.0,South,8.1,-,N/A,,Clear,180,2014-02-06 06:15:00
11:35 PM,23.0,19.4,86,30.04,10.0,South,8.1,-,N/A,,Clear,170,2014-02-06 06:35:00
11:55 PM,21.2,17.6,86,30.05,10.0,South,5.8,-,N/A,,Clear,180,2014-02-06 06:55:00